Location: Dennehotso
(36.8461°N, 109.8435°W)
Time: 14:34:43
(UTC+00:00)

ISS - Pass Details

Date: 06 March 2021
Orbit: 418 x 422 km, 51.6° (Epoch: 13 April)

Event Time Altitude Azimuth Distance (km) Brightness Sun altitude
Exits shadow 12:26:55 - 338° (NNW) 1,871 -0.6 -16.0°
Reaches altitude 10° 12:29:07 10° 9° (N) 1,498 -0.8 -15.6°
Maximum altitude 12:29:40 10° 18° (NNE) 1,480 -0.7 -15.4°
Drops below altitude 10° 12:30:13 10° 27° (NNE) 1,498 -0.5 -15.3°
Sets 12:34:05 0° 73° (ENE) 2,359 1.7 -14.6°
